GFSSGP_2pvu_pres_132.txt.gz
Presure
137 155 139 147 133 144 145 142 146 164 136 173 179 167 252 234 225 208 207 194 216 205 196 193 199 188 202 181 162 169 156 152 157 145 154 155 154 137 141 154 151 134 160 155 137 150 135 141 156
136 146 131 133 130 150 142 154 140 147 145 166 215 160 218 210 218 214 186 192 210 198 199 183 195 196 193 181 161 159 155 176 154 144 169 169 147 173 163 151 162 150 140 141 146 154 147 141 140
134 133 139 135 120 144 144 144 148 144 155 146 221 161 167 179 220 212 217 189 192 201 183 199 180 174 167 174 158 163 165 168 151 152 165 143 158 157 145 154 149 137 150 155 153 144 153 145 147
134 141 133 163 146 147 127 136 132 152 143 149 186 171 172 179 154 209 224 126 188 180 196 179 178 177 163 165 181 156 134 160 158 124 161 141 152 151 148 157 162 163 141 146 145 155 166 144 144
139 132 132 132 146 140 140 137 145 152 142 140 171 132 154 167 216 197 191 172 173 187 190 187 174 175 166 170 167 149 169 144 143 143 151 154 150 143 152 145 147 149 150 158 157 147 149 157 147
136 129 149 117 127 137 132 136 145 145 138 145 154 186 221 161 202 205 191 199 191 175 182 204 185 173 172 159 164 172 144 168 154 150 153 148 142 152 153 156 166 159 163 160 162 160 152 148 163
133 137 158 131 120 128 135 144 136 146 137 139 143 158 227 222 134 217 205 196 176 173 184 181 197 211 170 167 180 160 157 153 159 160 144 149 151 154 151 157 170 180 151 161 166 144 151 174 185
144 137 158 139 136 134 138 139 131 143 139 138 135 148 238 217 227 203 207 200 174 202 211 192 188 187 183 196 170 173 184 147 159 148 149 152 157 146 162 168 151 161 151 144 151 151 164 179 150
134 113 151 140 123 125 138 133 130 129 132 140 137 131 141 165 194 220 216 198 138 196 218 191 183 181 187 195 156 180 159 152 151 153 150 153 156 147 159 162 156 162 152 148 151 159 202 153 149
129 116 144 160 152 126 118 143 130 126 147 150 137 132 173 133 200 202 229 219 206 207 199 182 169 195 165 169 160 156 156 152 161 166 166 157 163 163 150 149 153 163 153 148 156 208 153 157 159
143 140 162 137 129 122 133 129 142 129 131 129 130 131 127 150 174 153 156 153 221 217 191 188 184 180 162 158 157 159 162 165 170 163 170 170 155 165 162 158 157 154 153 150 189 170 160 150 141
123 132 135 127 129 118 124 134 143 130 136 114 133 138 142 140 160 150 145 167 147 164 214 177 180 178 171 180 166 159 147 159 169 175 165 157 163 158 160 169 151 152 164 174 191 151 152 163 145
147 128 131 139 138 140 129 139 138 139 132 124 136 129 138 136 150 171 160 144 154 150 224 231 191 174 174 197 174 164 166 157 160 162 159 154 153 148 154 152 159 161 171 207 149 154 145 147 139
157 142 145 139 135 138 131 137 151 144 132 138 145 136 136 138 148 155 169 208 173 184 237 212 207 192 189 168 177 191 182 180 166 166 165 164 163 160 156 155 180 183 198 164 155 130 138 137 130
144 153 155 150 138 133 142 141 149 128 141 146 140 136 135 133 159 143 136 166 164 171 218 152 223 203 190 194 181 190 200 193 187 164 182 191 164 166 155 162 201 200 188 145 151 144 144 133 137
145 145 146 145 152 146 146 139 143 135 143 136 140 138 146 139 132 134 140 163 155 158 195 230 178 217 201 196 208 199 205 268 275 192 173 187 182 178 176 188 207 187 153 150 138 143 128 143 136
155 133 138 147 148 159 143 150 142 112 143 132 132 147 144 139 138 128 145 144 148 159 154 179 206 139 206 197 199 217 188 291 262 213 202 204 185 183 219 207 185 164 148 150 148 135 138 133 137
135 153 133 141 144 133 166 162 140 141 158 125 132 134 150 133 142 145 132 146 145 154 158 161 171 162 173 204 201 217 285 230 245 210 195 157 183 210 195 177 139 153 139 146 146 135 136 136 127
133 129 154 138 147 147 128 142 148 130 144 129 119 120 144 158 138 136 137 125 144 139 163 171 178 235 212 213 195 200 234 243 205 212 195 194 221 181 180 164 134 145 137 146 138 137 133 135 131
154 147 134 152 142 139 146 169 153 128 141 130 136 116 144 151 153 136 134 127 146 139 148 166 165 242 249 234 201 211 215 228 237 203 207 226 175 167 160 173 145 144 142 140 136 139 131 132 153
215 171 151 139 143 155 142 138 146 151 156 136 110 133 132 149 123 133 145 135 122 154 135 158 166 162 245 208 194 222 194 206 217 198 151 158 167 153 157 151 138 128 142 141 142 146 134 145 151
193 209 178 161 147 131 130 149 135 150 159 138 145 130 135 125 128 130 140 138 137 122 151 146 175 172 262 218 193 210 219 212 153 155 151 169 153 152 132 143 143 143 145 136 148 140 129 132 131
188 188 201 213 159 135 145 139 132 152 152 137 156 124 140 140 139 142 142 144 147 139 145 139 155 162 241 148 210 223 154 163 152 133 156 162 146 142 135 138 139 136 163 131 141 135 130 130 131
178 182 190 202 211 174 145 141 128 153 134 148 156 138 125 143 132 140 153 142 140 137 139 161 148 152 161 159 150 218 207 158 142 153 177 161 161 150 126 135 145 157 141 128 133 138 142 154 143
172 177 179 184 192 198 216 158 161 145 149 149 158 150 132 133 132 127 141 137 140 139 130 132 154 133 167 162 180 213 206 152 158 157 167 151 133 170 143 176 133 160 160 150 136 138 141 147 141
184 171 172 179 180 186 198 212 189 159 150 146 155 157 148 124 124 136 140 141 137 138 129 144 143 135 160 173 173 173 179 165 155 164 160 145 184 144 145 150 160 144 158 164 143 147 144 145 145
181 177 179 188 171 176 188 195 200 151 158 156 142 143 147 132 143 130 133 140 132 140 141 126 133 127 135 159 136 140 187 178 164 164 165 161 155 154 155 150 147 160 149 151 153 146 150 145 149
214 193 195 178 191 181 177 182 191 197 178 179 148 141 115 157 141 139 132 154 132 151 127 140 126 139 125 136 149 124 142 178 173 168 163 154 164 176 191 166 160 167 159 156 155 159 160 147 176
207 209 215 218 199 192 175 191 174 181 191 207 149 163 153 148 153 145 137 153 143 147 140 134 133 128 136 131 136 140 137 139 133 152 155 162 140 156 153 166 158 160 168 144 147 150 156 154 153
189 153 199 153 231 227 216 226 211 178 185 194 194 159 139 154 155 143 119 140 132 143 148 142 148 139 139 137 135 129 150 123 141 151 148 121 136 147 141 133 134 147 183 134 126 123 132 147 140

GFSSGP_2pvu_pres_135.txt.gz
Presure
140 123 140 119 145 121 138 142 145 142 148 160 186 163 169 129 225 234 225 202 208 207 210 197 200 202 197 182 144 158 157 168 160 162 170 139 147 146 151 137 156 152 140 154 154 140 160 148 134
136 123 132 149 142 140 153 147 139 150 142 151 168 174 176 211 218 217 218 201 199 226 204 187 197 197 196 174 167 179 171 146 157 160 150 158 172 162 167 153 158 143 154 137 154 155 154 151 162
142 118 118 140 141 128 156 141 141 140 138 162 160 229 162 179 211 196 203 197 188 215 196 213 220 207 170 194 190 159 155 162 135 134 164 169 182 145 146 144 148 140 152 142 142 149 148 149 145
141 123 145 136 135 139 138 144 147 139 141 149 153 183 219 147 205 199 222 184 185 211 195 190 183 181 170 161 163 145 173 151 162 150 147 156 149 146 132 154 160 133 147 149 161 170 158 147 152
127 126 154 122 152 146 137 148 154 136 137 173 146 223 222 212 214 196 192 182 175 187 189 199 181 173 165 160 163 166 132 162 163 180 165 159 151 143 148 157 154 158 151 164 166 144 145 170 172
140 164 145 154 125 141 149 141 138 141 134 142 140 185 191 225 211 200 176 190 182 171 184 185 175 179 165 160 160 171 170 143 161 152 146 150 142 135 157 147 147 162 183 161 144 147 163 172 162
131 150 135 163 125 131 147 139 134 135 134 134 172 164 193 193 236 210 201 183 185 176 177 182 182 177 179 161 171 168 150 158 152 156 143 137 139 152 149 159 158 152 141 150 149 150 165 163 159
137 144 185 131 127 142 140 134 132 150 149 131 142 154 167 197 235 214 206 191 182 210 183 176 196 189 182 183 156 168 166 160 163 146 146 145 143 146 151 138 145 152 146 149 150 201 144 147 145
157 149 135 133 171 139 139 135 127 139 137 129 134 151 160 146 150 168 210 206 193 233 206 184 178 194 203 183 179 176 150 145 159 168 142 144 146 150 151 151 150 167 148 146 173 150 158 145 146
130 156 138 126 125 117 126 141 128 146 133 130 142 139 151 175 144 155 161 179 180 226 203 198 191 193 181 174 171 164 167 154 145 145 144 145 154 164 150 145 149 157 145 148 184 157 141 143 136
114 122 148 145 126 124 124 134 139 147 129 134 125 143 154 142 177 184 178 143 230 203 215 189 177 207 225 183 191 174 163 157 152 149 157 160 150 158 158 158 158 145 145 212 151 151 143 140 136
145 149 133 132 127 121 131 144 128 127 130 148 128 128 146 150 169 167 167 178 227 226 212 179 189 179 165 163 168 163 161 161 159 163 166 165 168 163 158 162 149 146 155 186 153 141 143 134 133
148 146 123 125 131 148 126 146 132 130 145 142 133 137 139 143 144 166 158 165 221 149 151 207 186 187 184 163 162 161 152 161 166 168 169 156 161 154 157 154 144 151 183 147 151 143 136 130 128
153 151 148 138 139 141 144 148 122 138 143 130 137 131 134 145 142 146 151 160 158 180 200 223 207 194 181 163 191 170 162 160 157 160 158 153 154 151 157 158 153 159 194 156 158 140 133 130 139
138 157 148 150 149 149 143 147 131 132 146 132 148 130 140 131 155 143 145 152 165 157 157 151 217 203 200 190 179 174 181 184 161 158 158 158 159 160 162 161 191 194 154 153 137 131 131 127 131
146 148 141 153 155 156 141 149 150 127 149 132 137 127 140 136 128 163 145 134 158 169 171 163 181 198 201 201 209 194 195 180 196 178 176 177 159 163 161 187 183 164 157 145 131 130 139 137 136
140 150 152 148 151 157 156 152 162 134 150 131 132 133 139 140 140 140 157 145 154 167 165 173 240 207 213 205 193 187 198 299 183 174 166 190 170 166 169 196 206 155 147 141 128 141 138 144 135
171 138 149 169 154 153 147 141 142 128 131 126 132 137 141 137 133 135 144 148 151 157 174 171 238 227 199 220 214 209 209 256 210 201 193 206 198 177 210 192 158 143 142 130 144 133 142 134 135
179 151 139 152 140 143 153 158 167 138 141 124 146 129 141 154 138 142 143 149 150 151 170 164 253 249 211 199 216 239 296 262 209 168 188 182 195 213 195 181 158 145 135 145 133 142 127 134 124
191 183 152 134 156 158 138 124 149 127 152 138 121 140 125 146 145 139 131 143 155 152 160 169 170 226 215 213 217 242 226 213 208 193 181 211 213 188 180 157 149 137 135 136 140 134 134 163 152
194 186 187 154 145 156 158 150 159 151 128 146 126 126 131 140 140 136 142 131 141 148 150 167 175 254 197 226 215 237 202 214 192 187 213 194 189 178 158 152 149 141 134 139 138 133 158 155 140
192 202 187 181 159 139 149 161 141 141 146 155 133 129 127 136 141 130 139 144 146 145 153 177 165 149 208 214 196 223 231 202 200 212 190 181 169 147 157 144 149 142 139 139 141 146 154 118 125
186 186 196 205 194 155 146 140 161 160 142 152 160 125 123 141 139 126 142 141 147 146 138 147 168 159 153 211 222 222 218 207 174 192 172 167 180 152 133 126 142 143 141 140 127 156 154 134 130
183 183 187 199 205 199 160 134 138 143 147 153 159 131 137 154 137 141 134 145 143 151 145 159 166 142 184 207 235 231 163 141 153 149 160 170 165 141 150 150 142 138 128 139 131 130 139 154 160
169 178 186 190 194 201 198 190 147 149 141 152 149 135 151 132 136 139 135 137 140 142 134 148 151 173 159 208 233 154 147 137 174 195 144 169 147 143 128 137 146 121 138 139 133 143 158 151 147
178 170 177 184 190 191 197 203 181 157 140 132 133 143 151 129 136 138 136 152 136 143 124 149 123 165 176 182 204 165 144 145 190 168 177 153 144 151 144 154 156 162 128 134 134 140 143 142 150
182 189 181 174 185 185 188 193 195 136 156 139 159 140 149 125 150 134 127 148 146 128 132 140 137 140 170 155 191 177 159 155 169 185 162 144 181 168 162 140 155 165 146 139 142 142 145 151 150
190 187 172 174 174 178 176 183 189 194 197 205 132 142 147 158 153 137 136 139 136 145 143 143 129 132 152 165 140 166 169 163 166 170 159 151 155 150 183 152 163 151 159 155 151 158 165 154 146
199 206 194 181 171 173 172 173 175 186 194 198 204 191 158 150 158 133 137 138 138 144 144 150 134 125 135 142 138 154 129 172 170 168 171 172 169 172 166 161 164 166 165 160 152 131 156 135 151
202 201 201 203 206 181 171 176 169 171 179 190 198 142 218 143 122 155 150 138 128 155 152 147 148 129 128 129 131 140 140 173 177 112 173 162 156 177 191 184 162 163 185 166 130 157 157 156 136

GFSSGP_2pvu_pres_138.txt.gz
Presure
139 133 138 132 128 153 140 146 151 142 156 166 172 226 188 234 224 221 238 213 207 211 214 212 198 176 167 151 209 164 141 144 152 151 173 167 161 142 128 124 140 152 150 141 151 145 128 147 152
136 122 143 137 128 150 116 145 141 145 149 146 216 227 217 172 213 220 154 209 206 206 214 195 195 182 179 185 157 175 157 165 158 153 159 159 154 152 164 163 154 149 133 149 147 135 169 154 176
151 123 136 125 140 124 149 148 136 139 145 205 197 238 216 187 203 217 224 186 207 232 206 189 212 224 202 194 174 154 157 153 168 155 141 161 184 163 156 153 145 130 147 139 143 161 155 178 196
129 140 131 135 138 129 130 132 135 140 141 165 211 197 210 202 203 170 193 187 186 244 196 182 189 195 190 149 155 154 138 144 151 150 138 153 159 138 125 145 143 133 146 134 167 154 169 148 159
126 136 130 155 147 138 116 139 142 137 142 155 162 202 200 214 195 124 188 191 182 218 192 202 186 188 176 175 176 164 153 156 157 154 148 144 143 130 140 136 141 145 156 159 152 164 149 163 161
138 125 167 174 123 140 134 151 135 135 137 132 177 148 155 243 207 208 173 191 192 185 198 192 182 176 165 162 155 162 136 151 157 150 169 171 143 143 141 147 155 178 157 148 167 159 162 145 143
146 129 154 133 130 133 137 133 139 129 131 137 159 187 155 146 224 202 191 184 187 182 178 179 184 167 155 157 154 161 133 160 151 153 152 140 143 129 156 150 153 139 149 154 194 159 147 141 136
151 147 138 125 164 140 139 144 139 126 137 144 150 149 184 191 167 149 206 189 185 208 195 180 179 173 159 166 159 162 169 141 151 142 179 166 143 158 136 155 153 146 154 161 151 147 140 135 135
138 117 170 139 119 123 143 130 136 134 137 139 145 157 156 177 179 197 191 215 224 205 203 192 175 182 165 181 172 161 164 162 148 147 151 141 152 147 144 147 155 149 154 155 155 141 134 129 134
152 176 124 144 147 125 125 145 131 121 144 128 139 152 145 170 164 172 234 233 233 188 201 176 187 181 194 168 162 177 162 168 167 156 143 151 143 143 149 145 146 147 157 189 145 135 134 135 136
157 132 128 132 142 124 128 155 137 133 153 134 139 142 145 153 158 157 166 243 227 201 184 199 167 193 199 182 180 183 150 149 167 148 135 151 150 148 147 155 145 150 164 150 144 135 132 136 135
144 150 116 144 160 131 125 160 137 137 152 154 136 135 135 147 146 164 164 170 139 187 211 173 181 165 205 188 155 170 178 172 153 151 154 156 157 155 149 157 145 156 161 153 139 134 134 135 142
145 111 148 143 135 133 123 151 139 136 148 139 138 142 136 149 141 151 159 157 162 157 225 208 179 184 163 187 181 163 162 163 156 154 159 163 156 172 163 151 152 162 170 146 134 134 137 131 133
144 140 153 127 128 134 147 148 138 138 154 130 147 142 138 138 154 137 155 166 163 153 145 230 208 182 183 173 164 161 160 167 164 165 163 147 163 159 162 147 159 172 146 143 133 133 131 140 141
138 150 142 150 153 152 150 155 137 147 135 150 131 137 144 126 150 153 141 160 170 159 168 240 175 212 182 179 187 176 171 163 171 168 178 154 161 157 154 152 163 177 138 143 133 133 142 140 151
146 139 151 140 155 152 151 141 139 149 160 138 142 137 142 149 142 130 152 147 160 175 170 245 246 217 201 199 179 197 188 173 161 164 164 161 160 155 161 158 168 191 142 135 132 140 141 133 130
162 149 140 146 153 144 155 151 133 149 135 124 126 138 145 145 136 145 147 144 152 169 168 181 247 235 219 203 201 201 181 174 196 160 161 161 147 158 161 169 184 158 142 134 136 141 142 139 123
156 161 150 146 138 152 151 155 142 154 144 141 121 138 140 153 136 142 157 149 151 159 166 184 249 244 185 205 200 197 276 204 178 197 172 176 163 165 165 195 203 142 148 134 145 141 130 138 133
168 156 162 154 143 145 140 149 158 154 139 128 118 143 128 150 149 137 146 152 152 154 165 144 254 243 202 203 260 267 204 287 218 190 175 177 164 168 211 197 161 144 136 146 145 124 117 135 144
199 180 166 166 151 144 147 171 153 164 156 125 151 128 130 139 148 134 142 157 148 153 169 153 182 209 208 229 243 286 263 243 223 195 184 188 176 176 202 184 151 140 143 141 145 124 131 148 149
194 201 192 179 169 157 139 140 153 153 132 140 147 137 124 136 148 131 141 147 143 153 164 160 159 256 190 225 235 242 236 215 169 200 224 183 190 212 196 152 146 139 147 143 135 141 157 138 147
191 197 207 191 206 176 146 148 148 149 142 133 140 140 117 141 143 141 150 145 128 143 154 164 158 224 203 213 232 233 216 206 197 191 193 223 205 190 155 151 143 149 143 136 126 153 135 143 160
189 193 197 205 192 198 182 155 161 152 144 132 131 126 136 126 146 145 128 142 152 142 155 159 143 194 201 211 222 219 197 126 194 216 221 200 191 166 146 141 149 143 139 129 161 155 139 146 149
177 189 189 194 205 189 191 166 150 150 143 160 145 150 138 136 130 122 142 141 151 138 150 152 172 164 209 226 150 197 194 200 216 205 196 188 165 162 149 142 146 142 142 147 125 119 132 141 127
184 176 183 188 190 196 201 199 189 142 146 148 137 149 160 138 133 141 142 143 138 151 142 149 161 169 228 211 234 143 172 215 201 170 130 183 166 165 154 146 140 135 136 127 135 141 158 150 125
192 178 180 185 189 185 192 200 189 205 139 143 156 142 163 133 133 131 139 146 145 146 154 144 153 174 181 204 155 148 143 204 188 144 186 156 130 151 150 151 134 146 132 135 139 146 147 136 129
190 185 182 167 177 185 188 189 197 202 192 159 143 139 155 151 155 135 147 140 152 143 145 128 143 165 173 245 163 146 141 185 183 165 162 142 136 151 160 123 126 137 153 138 141 151 142 144 147
191 188 181 174 174 168 176 188 189 188 200 196 188 148 144 159 148 138 132 143 135 146 140 136 152 143 155 173 205 165 154 155 162 179 179 148 151 152 170 154 141 125 134 134 138 143 143 149 149
201 196 182 184 175 177 175 177 180 191 193 194 175 205 183 174 141 151 144 131 141 146 140 146 134 145 146 126 165 163 166 157 181 161 183 148 143 144 161 147 148 164 133 136 139 149 136 142 169
271 197 199 182 184 176 174 169 174 179 187 193 195 198 171 134 159 146 162 126 138 138 148 136 131 137 140 159 173 173 166 166 156 158 152 150 178 177 148 162 152 149 149 151 159 153 154 167 135

GFSSGP_2pvu_pres_141.txt.gz
Presure
131 120 140 138 140 145 127 145 148 158 160 174 208 238 221 217 221 223 235 225 203 205 206 192 182 183 199 147 152 136 147 148 151 153 147 129 145 154 159 140 126 129 147 140 145 149 144 167 200
136 128 125 135 138 121 144 141 145 161 150 161 176 222 219 206 207 199 239 215 208 210 229 190 183 171 198 172 170 151 150 151 144 157 147 171 131 146 154 155 159 148 142 135 153 153 160 179 165
136 121 127 121 146 123 143 136 140 152 143 176 159 224 224 210 203 224 191 184 203 210 225 218 201 187 178 178 199 171 158 144 132 164 160 165 158 152 143 142 135 145 136 153 154 173 180 153 153
119 133 140 139 156 147 126 134 123 154 156 151 148 159 232 212 200 189 190 196 217 222 232 209 190 185 179 180 143 170 161 145 159 144 156 148 143 134 143 139 146 140 146 146 174 163 154 148 150
125 137 129 162 135 137 127 134 128 146 144 155 176 182 148 217 201 130 185 181 233 205 191 196 206 181 218 194 164 164 174 164 158 155 160 142 136 143 143 133 139 135 176 161 159 162 144 144 138
134 145 140 155 132 121 136 140 143 127 146 146 154 171 180 193 212 201 193 189 208 186 198 207 193 198 193 201 177 158 138 154 157 140 141 152 126 132 134 129 166 159 150 179 146 142 138 137 145
131 125 147 152 117 136 134 133 139 129 148 147 136 167 164 197 229 208 205 192 182 204 195 190 201 175 171 182 167 157 164 162 141 157 158 136 135 143 143 151 150 149 165 158 143 135 142 138 134
127 176 180 138 113 136 139 126 140 141 138 151 140 158 157 161 188 240 220 208 199 189 183 178 175 167 174 188 165 167 153 154 129 154 143 151 144 134 152 139 145 159 159 153 136 134 137 136 141
163 184 134 155 129 123 139 133 132 133 141 139 144 148 155 158 166 200 231 228 210 215 193 193 185 171 164 159 168 148 141 147 142 158 146 154 137 146 152 161 146 162 148 140 133 141 135 136 144
142 136 123 179 141 126 122 132 139 135 126 127 145 147 143 151 163 163 150 236 228 208 202 187 175 169 160 155 159 160 140 152 157 143 134 149 156 157 145 152 153 161 144 135 133 133 141 132 140
147 155 178 161 123 146 125 144 138 130 128 144 141 147 142 154 147 170 168 160 221 208 188 203 188 183 167 160 167 170 158 141 149 144 147 151 153 147 145 144 157 158 142 129 136 135 135 137 142
140 161 143 124 130 146 125 124 134 135 148 147 138 134 149 150 143 156 164 175 152 218 200 181 182 188 204 195 159 181 153 153 155 151 148 151 159 159 144 159 161 160 142 133 136 136 136 132 126
125 158 117 117 129 142 122 123 136 131 157 133 149 147 142 149 138 147 158 168 169 175 219 197 186 185 203 202 181 163 155 177 176 149 149 168 145 166 152 168 162 149 137 132 137 136 131 133 137
147 146 150 125 142 146 133 124 157 129 141 164 146 144 136 147 150 141 154 156 170 170 177 238 205 182 174 212 187 181 185 187 173 166 153 157 159 160 169 153 163 142 136 138 137 138 130 132 126
160 148 140 138 155 128 114 149 157 128 146 159 133 137 145 140 135 150 150 159 163 162 176 240 231 209 183 175 163 176 175 198 169 157 160 164 162 172 163 159 163 148 135 138 138 131 133 143 144
156 158 147 148 150 155 154 159 156 132 133 155 142 140 147 138 143 155 142 152 160 163 174 244 241 217 210 179 174 173 165 164 163 160 165 173 165 167 159 164 169 145 136 135 140 138 125 136 137
193 162 161 153 145 149 153 153 166 132 136 154 132 134 141 150 141 141 147 152 158 164 166 183 234 236 221 210 184 192 191 175 169 171 170 160 164 163 158 168 163 145 138 137 134 144 132 133 134
178 189 172 160 159 145 146 150 132 145 142 127 162 128 143 147 138 143 148 145 152 167 155 170 216 245 211 219 206 197 189 197 159 172 175 161 161 163 156 166 168 149 137 143 133 133 127 120 139
207 174 178 183 167 163 143 158 155 157 165 139 162 120 127 132 146 138 148 131 154 161 157 161 214 201 223 216 210 217 197 216 188 166 164 162 164 163 162 176 146 149 135 141 141 146 125 138 152
196 196 191 173 181 173 164 151 151 152 162 166 143 151 137 135 147 129 140 149 144 155 165 153 184 222 211 209 257 248 311 281 217 204 161 156 147 161 169 197 173 139 142 145 137 140 136 139 123
192 201 193 183 175 174 169 171 135 156 158 144 148 129 144 126 138 147 137 147 140 153 159 162 163 225 205 234 250 278 272 300 240 242 190 181 174 168 181 194 149 141 151 122 134 150 161 142 134
182 196 197 193 189 177 166 168 148 150 147 148 142 141 152 139 119 143 142 149 147 147 154 155 165 205 199 230 222 261 248 249 200 180 185 199 172 172 197 167 153 151 117 122 139 161 166 155 136
179 176 193 195 188 194 190 173 173 164 152 154 138 140 149 142 128 134 147 149 150 143 152 161 173 182 206 229 239 224 218 216 209 184 191 184 180 191 197 163 143 148 144 132 124 136 134 135 155
184 184 180 186 195 196 193 194 183 148 151 145 139 137 154 146 138 137 128 149 154 146 148 161 172 178 185 220 218 158 188 150 214 226 186 196 192 207 171 158 146 143 141 143 136 148 136 150 151
183 182 186 180 188 193 197 192 196 195 163 143 155 144 132 149 133 140 132 138 150 144 143 157 170 176 168 149 182 201 195 189 167 189 200 210 205 182 153 154 152 142 145 157 145 141 138 124 135
202 179 187 187 188 187 191 198 196 192 197 141 160 136 155 130 143 139 137 141 146 139 148 144 163 175 191 143 151 192 141 213 216 190 206 197 182 162 160 154 140 139 145 125 120 152 128 140 133
202 197 179 185 196 171 185 193 194 201 189 196 148 146 148 138 145 160 137 115 144 150 144 139 148 171 184 158 156 153 220 215 135 196 146 189 172 167 154 148 135 142 133 137 148 156 147 128 142
228 203 148 181 196 185 182 188 190 190 195 201 191 201 155 156 136 157 143 131 135 142 139 140 143 164 169 208 150 151 212 200 171 137 187 161 172 153 158 142 138 131 141 144 146 149 146 120 152
238 200 197 179 184 186 186 180 171 183 189 193 196 199 193 134 146 144 153 134 140 148 146 139 143 156 164 171 180 158 152 184 187 178 135 157 134 166 132 145 127 141 134 131 137 144 141 140 147
234 241 196 194 185 190 183 181 176 173 170 180 192 192 200 205 198 140 153 137 154 141 140 143 143 137 138 162 203 169 152 157 164 205 144 150 165 167 156 126 131 119 147 136 127 136 133 144 157

GFSSGP_2pvu_pres_144.txt.gz
Presure
123 129 121 142 133 127 124 127 141 144 177 163 256 232 213 206 227 231 237 247 182 171 174 135 160 176 172 166 179 161 165 133 157 152 141 140 136 150 126 174 159 138 155 142 148 153 192 164 159
132 136 136 121 134 131 139 129 139 155 159 183 205 232 210 202 225 225 171 225 199 182 176 176 178 180 171 142 153 146 138 150 139 137 147 136 132 148 142 148 143 145 148 142 159 171 171 145 154
129 134 125 157 134 140 143 132 124 135 159 172 180 232 210 201 223 212 206 212 219 209 196 200 156 179 210 184 184 151 124 134 140 138 139 137 150 146 142 139 141 145 151 150 147 168 127 151 149
123 139 129 142 137 135 133 146 128 128 152 162 165 201 225 210 192 193 188 203 211 219 219 187 179 190 180 140 142 159 146 144 148 165 151 143 143 146 138 145 138 153 142 145 167 122 150 152 151
132 112 135 148 134 132 137 143 139 128 146 158 161 168 232 208 205 197 139 212 218 224 245 210 184 187 166 155 163 161 160 161 143 145 134 140 139 145 144 133 149 135 149 170 132 135 137 142 143
140 147 152 136 124 124 139 136 133 130 143 142 156 165 173 237 210 197 194 225 224 210 215 197 201 165 171 180 185 160 155 158 146 154 140 148 136 138 143 136 135 152 159 193 135 133 142 145 135
150 127 150 135 155 123 138 128 140 130 134 149 154 154 163 175 239 201 196 185 198 193 208 196 202 173 175 152 166 153 160 154 154 143 154 142 131 145 131 135 154 153 182 134 135 140 132 143 137
137 165 116 170 128 122 134 134 126 126 128 149 153 152 157 163 166 154 204 183 210 206 188 204 192 221 233 172 172 156 167 160 152 147 142 151 149 135 144 151 148 161 140 137 139 145 136 150 128
120 149 140 163 153 138 127 129 136 138 120 126 148 156 150 158 167 167 238 189 183 191 206 196 194 187 194 197 152 155 154 145 142 144 150 146 137 141 157 163 152 162 143 134 141 135 136 130 128
128 141 161 123 141 143 127 118 127 132 159 137 139 146 150 152 161 160 153 230 201 186 194 183 176 188 174 178 171 161 152 158 157 139 129 163 143 154 145 148 157 134 134 141 135 127 135 126 125
140 156 151 131 119 176 126 126 147 135 130 147 138 139 139 137 150 159 163 169 227 201 184 186 177 167 184 163 168 173 164 158 149 148 154 146 137 155 157 161 157 143 132 139 137 133 128 124 150
135 137 149 135 166 159 146 129 125 129 128 147 147 146 138 138 145 138 155 167 173 220 186 187 175 162 165 158 163 151 152 140 142 154 144 153 142 159 151 155 160 142 138 140 135 141 130 137 171
148 144 157 167 116 124 135 134 126 146 128 147 139 146 146 151 136 152 156 166 162 183 218 205 172 176 168 167 161 161 160 156 158 169 146 151 160 149 166 154 158 143 141 140 136 121 136 138 144
155 147 160 153 115 119 132 154 127 134 134 138 155 138 151 140 144 131 156 158 161 173 237 213 198 183 197 179 167 159 171 169 149 160 153 150 148 150 159 156 150 147 139 139 122 133 137 144 134
162 158 147 157 148 147 135 142 132 134 144 131 160 133 146 135 151 143 145 158 164 170 192 249 216 196 179 167 206 177 179 183 163 159 149 149 154 151 163 162 151 139 137 138 133 131 143 134 139
187 194 162 153 165 148 134 122 150 157 146 132 166 141 144 130 139 146 142 152 166 150 176 251 252 214 196 174 203 187 180 170 157 186 188 148 146 165 163 162 152 137 139 131 133 135 134 134 149
222 195 190 171 159 145 150 161 127 148 145 137 149 131 139 144 137 139 146 147 159 163 155 198 234 240 218 202 181 164 178 172 204 160 170 164 167 163 186 166 151 141 135 134 128 142 130 145 148
203 217 188 197 176 146 159 149 157 155 154 144 160 139 134 141 148 135 147 131 153 161 145 175 243 193 216 221 203 184 172 164 170 164 159 160 173 178 167 168 155 139 142 142 127 143 141 137 129
197 204 210 182 196 175 152 166 147 149 160 140 135 139 137 120 143 127 140 144 147 158 159 158 182 207 206 220 202 215 193 201 162 171 170 170 180 171 164 167 164 137 143 143 139 126 141 153 148
193 199 203 205 189 195 173 166 134 159 148 133 160 132 146 138 126 147 144 142 141 151 158 168 169 224 212 224 224 220 216 188 206 171 174 173 171 167 160 170 170 124 141 137 135 127 144 151 128
187 192 198 198 208 184 186 181 170 167 135 164 163 145 147 138 130 140 148 128 148 147 151 160 165 180 214 221 242 261 260 216 197 180 174 178 172 170 161 173 153 140 137 133 128 121 151 132 143
182 184 189 194 197 198 189 176 190 166 168 157 155 168 140 161 146 131 141 149 147 144 153 161 166 170 223 224 229 267 278 246 249 191 174 162 170 166 164 173 150 139 144 130 129 139 134 154 142
189 181 175 185 192 196 196 199 176 142 156 173 157 166 148 155 148 136 134 144 153 148 151 157 163 176 178 229 239 248 247 288 239 204 165 162 165 164 174 206 151 142 138 140 133 168 148 134 141
205 180 181 175 179 187 196 196 198 185 175 167 174 156 146 158 150 145 136 140 146 156 144 158 163 177 183 237 216 219 218 230 232 223 191 172 167 177 172 198 148 148 123 144 161 170 142 138 142
206 201 193 175 180 174 178 195 194 189 193 150 138 170 143 139 142 142 137 138 138 151 144 156 162 177 166 164 217 215 166 216 170 184 186 187 190 170 204 196 149 140 119 138 169 162 135 142 144
199 204 202 207 185 180 177 178 194 198 197 200 139 169 162 147 138 141 151 141 133 145 140 151 160 169 154 157 168 206 177 197 159 179 191 196 169 190 195 173 147 136 142 124 138 147 143 159 151
206 198 202 176 208 188 183 183 179 194 199 198 188 195 155 177 142 138 138 143 139 133 152 149 153 161 175 140 159 194 192 193 192 184 198 187 180 199 170 144 145 131 145 133 141 143 133 140 146
201 144 202 202 210 146 185 186 184 183 196 202 198 158 200 184 132 143 149 145 147 134 144 145 149 158 169 177 159 151 225 216 209 194 185 181 200 197 169 144 136 136 159 146 134 160 138 139 143
196 207 207 198 204 206 182 191 189 186 183 191 199 200 191 188 150 167 162 159 160 139 131 148 143 145 162 177 168 161 201 226 225 229 219 220 151 173 161 139 145 133 161 125 149 154 150 144 135
193 201 205 231 204 206 195 184 187 187 180 186 193 199 202 201 186 171 190 143 139 159 133 136 147 148 151 169 180 179 164 142 207 143 207 203 178 160 136 158 141 147 128 133 147 151 149 126 141

GFSSGP_2pvu_pres_147.txt.gz
Presure
120 134 126 126 128 134 138 128 129 132 163 176 240 216 206 200 224 221 219 242 243 238 233 209 182 164 147 138 148 156 126 116 131 140 127 132 140 119 131 134 139 153 144 154 135 148 155 139 156
143 128 120 152 134 133 136 129 131 132 166 169 185 222 205 227 223 225 235 242 256 247 225 212 181 175 169 161 131 142 131 154 139 127 140 139 142 133 128 148 140 138 155 146 144 159 134 143 143
135 129 130 127 135 135 129 141 131 132 141 163 178 207 211 195 206 225 234 227 202 213 176 164 198 145 174 157 159 156 168 152 157 147 140 141 137 123 131 139 145 150 149 145 165 133 154 148 136
127 125 131 130 125 122 146 147 124 145 134 154 164 180 223 203 195 169 208 214 216 181 168 129 174 157 163 168 156 159 151 145 138 147 142 146 135 142 131 145 153 150 148 181 134 133 149 138 131
145 132 148 123 125 129 135 136 130 129 128 152 164 168 169 201 200 198 215 129 212 207 189 190 171 160 142 169 170 173 146 142 160 133 131 145 126 153 145 148 141 140 149 167 132 135 141 133 136
148 140 141 141 135 126 131 140 140 139 124 145 148 164 174 165 207 202 228 232 204 219 198 225 177 183 196 208 139 157 139 141 145 135 141 145 148 138 144 136 142 148 156 127 136 141 137 134 147
126 147 153 147 161 167 126 138 118 129 126 126 152 148 166 171 178 209 191 226 240 221 204 174 177 182 184 177 173 154 153 158 147 150 132 146 144 133 135 133 141 154 169 138 135 137 130 127 145
111 146 152 124 168 118 124 139 136 138 152 128 127 156 156 162 169 227 194 207 205 216 231 186 176 179 193 162 152 162 167 132 156 148 147 133 121 148 133 157 153 154 141 130 140 142 128 130 152
155 133 142 148 151 145 128 128 149 132 144 146 133 146 139 156 164 168 201 206 205 201 190 182 186 180 186 155 174 151 159 149 157 143 149 131 141 143 144 144 150 160 138 136 141 131 127 144 162
148 133 137 133 141 140 124 129 127 141 129 144 141 132 137 153 153 169 163 198 197 186 190 193 201 182 179 162 171 155 145 156 149 138 152 138 144 159 142 160 153 158 139 140 139 132 126 147 139
142 138 147 151 128 145 152 135 121 154 128 142 140 144 146 137 148 156 163 170 194 185 213 199 195 210 177 165 171 165 149 157 144 147 154 162 149 152 141 153 157 143 134 135 143 130 150 134 136
146 140 139 176 134 137 141 145 124 128 133 130 158 144 139 150 135 154 163 162 204 193 192 173 185 207 197 187 155 156 141 153 138 145 143 158 147 145 152 162 156 141 136 135 131 125 160 121 149
151 147 128 161 187 137 153 179 127 123 143 126 140 136 147 130 145 140 159 159 166 222 189 182 170 180 173 156 155 153 156 163 142 153 154 166 154 148 155 151 159 143 142 137 135 127 132 133 185
143 146 152 142 145 166 141 131 142 126 131 127 131 152 137 129 148 144 144 166 151 188 231 197 173 172 182 167 162 165 164 154 160 149 155 152 145 154 144 155 160 137 141 144 129 144 140 148 170
222 160 155 144 152 151 149 122 154 141 123 158 123 158 140 147 132 142 142 156 161 158 263 235 194 168 184 164 165 174 150 164 161 146 170 163 148 136 152 159 160 139 141 132 139 147 139 137 170
230 193 222 163 151 142 172 132 135 124 125 136 143 132 145 142 128 138 147 148 154 148 177 217 247 192 172 172 169 180 172 170 164 162 168 148 155 154 152 155 153 141 142 127 141 140 141 146 167
212 217 198 214 185 161 153 156 129 128 149 144 134 131 143 138 140 131 144 140 156 154 156 181 207 242 216 184 193 168 175 154 164 171 157 160 147 149 152 152 156 140 142 134 141 137 155 152 165
201 213 206 212 185 188 168 164 138 133 136 146 143 149 143 137 140 141 133 144 134 156 152 159 203 200 231 211 189 167 200 177 167 168 181 179 147 149 153 169 159 136 140 136 140 143 151 145 119
189 193 207 207 216 187 194 169 168 133 144 151 159 143 158 140 125 140 126 136 146 149 153 161 170 204 212 231 216 193 169 196 178 180 165 172 162 149 158 179 173 136 127 136 142 146 139 133 122
181 187 194 205 209 207 193 201 177 167 161 145 161 144 135 140 148 136 148 135 139 145 150 159 171 183 225 225 239 222 191 168 162 176 197 170 155 159 172 181 172 141 130 135 148 141 127 125 126
190 185 184 190 200 207 202 185 198 174 158 150 149 153 148 136 146 130 141 141 135 144 147 162 171 174 178 228 230 234 216 205 173 170 164 162 159 167 173 186 178 136 141 132 143 138 153 128 129
201 192 182 182 188 197 205 200 165 196 177 161 141 149 152 153 148 142 131 140 147 154 145 160 160 168 182 234 246 262 277 297 211 174 170 168 167 171 179 166 179 136 147 138 129 144 143 138 131
208 202 192 185 184 188 197 202 200 181 187 148 151 145 150 154 150 156 135 138 143 152 146 153 158 168 179 238 227 256 258 256 235 201 168 173 179 178 170 159 179 127 148 133 133 136 158 146 147
199 203 204 197 186 180 187 195 203 200 177 172 180 148 142 150 155 146 150 143 142 146 147 147 163 160 165 184 221 227 239 264 321 207 170 178 179 176 173 158 186 133 144 139 128 133 150 150 151
189 200 204 205 198 184 176 182 192 200 199 185 170 167 142 140 155 148 154 137 129 136 146 145 161 164 154 167 194 232 232 245 202 275 176 180 169 170 172 164 205 140 143 146 123 133 139 152 140
227 194 199 203 205 207 175 180 179 187 199 200 189 149 143 160 159 146 139 140 142 138 139 145 148 164 166 154 172 215 233 230 226 179 200 182 169 174 165 171 204 140 144 139 139 171 148 136 147
172 193 200 207 204 212 200 187 178 180 183 198 195 195 181 172 147 163 140 134 141 149 137 144 143 160 170 143 159 177 138 230 200 124 218 184 170 166 178 170 191 143 132 124 151 155 148 144 145
218 235 191 200 206 203 199 194 198 182 186 186 197 202 196 149 161 169 150 145 141 139 145 137 143 149 164 172 160 161 221 209 203 190 179 193 180 188 175 191 173 148 133 136 146 154 148 143 141
208 225 232 196 207 181 200 180 220 194 189 189 184 191 203 144 203 141 166 148 141 149 152 144 133 148 150 169 179 158 178 226 212 220 186 192 204 202 176 204 164 151 136 127 133 150 151 145 149
213 219 260 190 202 209 151 203 215 205 190 192 181 185 195 201 136 145 182 145 177 140 157 152 145 135 146 159 170 158 167 198 221 163 200 204 186 173 185 190 153 151 140 150 143 152 156 148 148